Location: Branche des Alpilles
(43.6087°N, 4.6976°E)
Time: 12:46:22
(UTC+00:00)

Cosmos 923 Rocket - Visible Passes

Search period start: 20 April 2021 00:00
Search period end: 30 April 2021 00:00
Orbit: 759 x 784 km, 74.0° (Epoch: 19 April)

Date Brightness Start Highest point End Pass type
(mag) Time Alt. Az. Time Alt. Az. Time Alt. Az.
20 Apr 6.7 00:03:58 10° NNE 00:05:57 12° NE 00:07:57 10° ENE visible
20 Apr 4.0 01:43:48 10° NNW 01:49:02 76° ENE 01:49:14 74° E visible
20 Apr 5.8 03:27:58 10° WNW 03:29:32 13° W 03:29:32 13° W visible
21 Apr 4.8 01:07:59 10° N 01:13:01 46° ENE 01:13:16 46° ENE visible
21 Apr 5.4 02:50:47 10° NW 02:53:32 21° WNW 02:53:32 21° WNW visible
22 Apr 5.5 00:32:20 10° N 00:36:53 29° ENE 00:37:23 29° ENE visible
22 Apr 5.0 02:14:17 10° NW 02:17:41 32° WNW 02:17:41 32° WNW visible
22 Apr 6.1 23:56:55 10° N 00:00:39 19° NE 00:01:36 19° ENE visible
23 Apr 4.6 01:38:05 10° NNW 01:41:55 46° NW 01:41:55 46° NW visible
23 Apr 6.5 23:22:01 10° NNE 23:24:18 13° NE 23:25:53 11° ENE visible
24 Apr 4.5 01:02:05 10° NNW 01:06:11 55° N 01:06:11 55° N visible
24 Apr 6.2 02:46:30 10° WNW 02:46:30 10° WNW 02:46:30 10° WNW visible
25 Apr 4.9 00:26:14 10° N 00:30:32 45° NE 00:30:32 45° NE visible
25 Apr 5.9 02:09:11 10° NW 02:10:51 17° WNW 02:10:51 17° WNW visible
25 Apr 5.5 23:50:34 10° N 23:54:55 31° NE 23:54:55 31° NE visible
26 Apr 5.5 01:32:37 10° NW 01:35:14 25° WNW 01:35:14 25° WNW visible
26 Apr 6.0 23:15:07 10° N 23:18:59 20° NE 23:19:21 20° ENE visible
27 Apr 5.0 00:56:24 10° NNW 00:59:40 37° NW 00:59:40 37° NW visible
27 Apr 6.4 22:40:06 10° NNE 22:42:39 13° NE 22:43:48 13° ENE visible
28 Apr 4.8 00:20:22 10° NNW 00:24:07 48° NNW 00:24:07 48° NNW visible
28 Apr 4.9 23:44:30 10° NNW 23:48:37 45° NNE 23:48:37 45° NNE visible
29 Apr 6.1 01:27:34 10° NW 01:28:56 15° WNW 01:28:56 15° WNW visible
29 Apr 5.3 23:08:48 10° N 23:13:08 32° NE 23:13:08 32° NE visible
